GFSSE_prec_radar_042.txt.gz
Reflectivity
-20 -20 8 11 10 7 -13 -20 -20 -20 -20 -20 -20 -20 -20 -20 -20 -20 -20 -20 -20 -20 -20 -20 -20 -20 -20 -20 -20 -20 -20 -20 -20 -20 -20 -20 -20 -20 -20 -20 -20 8 -4
-20 -8 5 5 10 5 -5 -20 -20 -20 -20 -20 -20 -20 -20 -20 -20 -20 -20 -20 -20 -20 -20 -20 -20 -20 -20 -20 -20 -20 -20 -20 -20 -20 -20 -20 -20 -20 -20 -20 -20 -19 3
-19 -8 -20 4 2 2 -5 -20 -20 -20 -20 -20 -20 -20 -20 -20 -20 -20 -20 -20 -20 -20 -20 -20 -20 -20 -20 -20 -20 -20 -20 -20 -20 -20 -20 -20 -20 -20 -20 -20 -20 -20 -20
7 -7 -20 -20 -20 -20 -20 -20 -20 -20 -20 -20 -20 -20 -20 -20 -20 -20 -20 -20 -20 -20 -20 -20 -20 -20 -20 -20 -20 -20 -20 -20 -20 -20 -20 -20 -20 -20 -20 -20 -20 -20 -20
-8 -15 -20 -17 -20 -20 -20 -20 -20 -20 -20 -20 -20 -20 -19 -20 -20 -20 -20 -20 -20 -20 -20 -20 -20 -20 -20 -20 -20 -20 -20 -20 -20 -20 -20 -20 -20 -20 -15 -16 -3 -5 -16
11 -20 -20 -20 -20 -20 -20 -20 -20 -20 -20 -20 -20 -20 -20 -20 -20 -20 -20 -20 -20 -20 -20 -20 -20 -20 -20 -20 -20 -20 -20 -20 -20 -20 -20 -20 -20 -20 -20 -20 -20 -20 -19
7 10 -3 -20 -20 -17 1 -19 -11 -20 -20 -20 -20 -20 -20 -20 -20 -20 -20 -20 -20 -20 -20 -20 -20 -20 -20 -20 -20 -20 -20 -20 -20 -20 -20 -20 -20 -20 -20 -20 -20 -20 -20
6 28 32 19 12 11 28 -10 -20 -20 -20 -20 -14 -20 -20 -20 -20 -20 -20 -20 -20 -20 -20 -20 -20 -20 -20 -20 -20 -20 -20 -20 -20 -20 -20 -20 -20 -20 -20 -20 -20 -20 -20
29 29 32 -2 24 17 17 -9 17 -20 -19 2 -20 -20 -6 7 -13 -20 -20 -20 -20 -20 -20 -20 -20 -20 -20 -20 -20 -20 -20 -20 -20 -20 -20 -20 -20 -20 -20 -20 -20 -20 -20
20 41 24 -1 26 2 18 22 6 -19 9 -5 -5 -9 9 17 -20 -20 -20 -20 -20 -20 -20 -20 -20 -20 -20 -20 -20 -20 -20 -20 -20 -20 -20 -20 -20 -20 -20 -20 -20 -20 -20
17 17 34 36 32 30 36 23 5 11 13 7 -1 19 14 -20 -20 -20 -20 -20 -20 -20 -20 -20 -20 -20 -20 -20 -20 -20 -20 -20 -20 -20 -20 -20 -20 -20 -20 -20 -20 -20 -20
14 28 18 13 18 27 29 3 6 22 15 -10 7 22 -13 -20 -20 -20 -20 -20 -20 -20 -20 -20 -20 -20 -20 -20 -20 -20 -20 -20 -20 -20 -20 -20 -20 -20 -20 -20 -20 -20 -20
29 18 15 26 37 40 37 29 21 25 18 20 9 -17 -20 -20 -20 -20 -20 -20 -20 -20 -20 -20 -20 -20 -20 -20 -20 -20 -20 -20 -20 -20 -20 -20 -20 -20 -3 -20 -20 -20 -20
21 27 23 27 37 22 16 35 29 28 31 10 -7 -20 -20 -20 -20 -20 -20 -20 -20 -20 -20 -20 -20 -20 -20 -20 -20 -20 -20 -20 -20 -20 -20 -20 -20 -20 -20 7 -20 -20 -20
4 26 21 6 3 5 26 31 32 20 -2 4 0 -20 -20 -20 -20 -20 -20 -20 -20 -20 -20 -20 -20 -20 -20 -20 -20 -20 -20 -20 -20 -20 -20 -20 -20 -20 -20 -8 -20 -20 -20
23 17 28 30 28 24 9 18 8 9 15 9 -20 -20 -20 -20 -20 -20 -20 -20 -20 -20 -20 -20 -20 -20 -20 -20 -20 -20 -20 -20 -20 -20 -20 -20 -20 -20 -20 -20 11 -5 -20
3 20 17 0 16 27 -20 1 -1 -13 -20 -20 -20 -20 -20 -20 -20 -20 -20 -20 -20 -20 -20 -20 -20 -20 -20 -20 -20 -20 -20 -20 -20 -20 -20 -20 -20 -20 -20 -20 -20 -20 -7
-20 -19 -0 -11 -4 30 -20 -20 -20 -20 -20 -20 -20 -20 -20 -20 -20 -20 -20 -20 -20 -20 -20 -20 -20 -20 -20 -20 -20 -20 -20 -20 -20 -20 -20 -20 -20 -20 -20 -20 -20 -20 -20
-20 -20 -20 -20 -16 4 3 -20 -20 -20 -20 -20 -20 -20 -20 -20 -20 -20 -20 -20 -20 -20 -20 -20 -20 -20 -20 -20 -20 -20 -20 -20 -20 -20 -20 -20 -20 -20 -20 -20 -20 -20 -20
-20 -20 -20 -20 2 7 29 -20 -20 -20 -20 -20 -17 -20 -20 -20 -20 -20 -20 -20 -20 -20 -20 -20 -20 -20 -20 -20 -20 -20 -20 -20 -20 -20 -20 -20 -20 -20 -20 -20 -20 -20 -20
-20 -20 -20 -20 -20 -5 5 -20 -20 -20 -20 6 31 -18 -20 -20 -20 -20 -20 -20 -20 -20 -20 -20 -20 -20 -20 -20 -20 -20 -20 -20 -20 -20 -20 -20 -20 -20 -20 -20 -20 -20 -20
-20 -20 -20 -20 -20 -1 6 -20 -20 -20 -20 -20 -10 2 -20 -20 -20 -20 -20 -20 -20 -20 -20 -20 -20 -20 -20 -20 -20 -20 -20 -20 -20 -20 -20 -20 -20 -20 -20 -20 -20 -20 -20
-20 -20 -20 -20 -20 -20 -7 -20 -20 -20 -20 1 -9 -13 -18 -10 -11 -20 -20 -20 -20 -20 -20 -20 -20 -20 -20 -20 -20 -13 -5 -4 -20 -20 -20 -20 -20 -20 -20 -20 -20 -20 -20
-20 -20 -20 -20 -8 -20 -16 -20 -20 -20 -20 -20 -20 -20 -20 -20 6 -20 -20 -20 -20 -20 -20 -20 -20 -20 -20 -16 -14 -20 -20 -20 -20 -20 -20 -20 -20 -20 -20 -20 -20 -20 -20
-20 -20 -20 -20 -20 -20 -20 -20 -20 -20 -20 -20 -20 -20 -20 15 18 19 16 -7 -20 -20 -20 -20 -20 -20 -20 -17 -20 -20 -20 -20 -20 -20 -20 -20 -20 -20 -20 -20 -20 -20 -20
-20 -20 -20 -20 -20 -20 3 -11 -15 -14 -20 -17 -10 -20 -2 7 -8 14 5 -20 9 -20 -18 -20 -20 -19 -20 -20 -20 -20 -20 -20 -20 -20 -20 -20 -20 -20 -20 -20 -20 -20 -16

GFSSE_prec_radar_045.txt.gz
Reflectivity
-20 -20 5 -11 -15 -16 -20 -20 -14 -6 -20 -20 -20 -20 -20 -20 -20 -20 -20 -20 -20 -19 -3 -14 -20 -20 -20 -20 -20 -20 -20 -20 -20 -20 -20 -20 -20 -20 -20 -20 -20 5 -1
-20 -20 7 11 -4 -8 -1 -20 -2 -17 -20 -20 -20 -20 -20 -20 -20 -20 -20 -20 -20 -20 9 -20 -20 -20 -20 -20 -20 -20 -20 -20 -20 -20 -20 -20 -20 -20 -20 -20 -20 -20 -17
-15 -19 9 11 -10 -14 4 -4 -20 -20 -20 -20 -20 -20 -20 -20 -20 -20 -20 -20 -20 -20 -2 -20 -20 -20 -20 -20 -20 -20 -20 -20 -20 -20 -20 -20 -20 -20 -20 -20 -20 -20 -20
-17 -20 13 7 12 8 5 -3 -17 -20 -20 -20 -20 -20 -20 -20 -20 -20 -20 -20 -20 -20 -20 -20 -20 -20 -20 -20 -20 -20 -20 -20 -20 -20 -20 -20 -20 -6 2 -19 -20 -20 -20
15 21 15 11 9 7 0 -20 -20 -20 -20 -20 -20 -20 -20 -20 -20 -20 -20 -20 -20 -20 -20 -20 -20 -20 -20 -20 -20 -20 -20 -20 -20 -20 -20 -20 -20 -20 -20 -20 -20 -15 -20
33 33 33 28 15 3 -20 -20 -20 -20 -20 -20 -20 -20 -20 -20 -20 -20 -20 -20 -20 -20 -20 -20 -20 -20 -20 -20 -20 -20 -20 -20 -20 -20 -20 -20 -20 -20 -20 -20 -20 -20 -20
13 9 -3 7 3 -20 -20 -20 -20 -20 -20 -20 -20 -20 -20 -20 -20 -20 -20 -20 -20 -20 -20 -20 -20 -20 -20 -20 -20 -20 -20 -20 -20 -20 -20 -20 -20 -20 -20 -20 -20 -20 -20
6 20 27 16 6 -20 -20 -20 -4 -7 -20 -20 -20 -20 -20 -20 -20 -20 -20 -20 -20 -20 -20 -20 -20 -20 -20 -20 -20 -20 -20 -20 -20 -20 -20 -20 -20 -20 -20 -20 -20 -20 -20
9 32 29 28 13 15 -20 -16 -19 -20 -20 -20 -20 -18 -3 -20 -20 -20 -20 -20 -20 -20 -20 -20 -20 -20 -20 -20 -20 -20 -20 -20 -20 -20 -20 -20 -20 -20 -20 -20 -20 -20 -20
34 18 32 32 27 13 -0 -3 -10 26 -20 10 -6 9 -8 -20 4 5 9 -20 -20 -20 -20 -20 -20 -20 -20 -20 -20 -20 -20 -20 -20 -20 -20 -20 -20 -20 -20 -20 -20 -20 -20
21 -1 11 35 40 34 28 22 6 24 2 9 4 11 7 -7 21 3 -4 -20 -20 -20 -20 -20 -20 -20 -20 -20 -20 -20 -20 -20 -20 -20 -20 -20 -20 -20 -20 -20 -20 -20 -20
18 28 22 11 18 20 38 26 27 19 18 4 17 9 15 13 14 -16 -20 -20 -20 -20 -20 -20 -20 -20 -20 -20 -20 -20 -20 -20 -20 -20 -20 -20 -20 4 -16 -20 -20 -20 -20
27 -18 3 22 13 23 21 31 26 6 15 22 16 2 19 -1 -20 -20 -20 -20 -20 -20 -20 -20 -20 -20 -20 -20 -20 -20 -20 -20 -20 -20 -20 -20 -20 -19 1 -20 -20 -20 -20
10 20 -10 19 25 32 15 25 27 30 28 23 27 31 16 7 -19 -20 -20 -20 -20 -20 -20 -20 -20 -20 -20 -20 -20 -20 -20 -20 -20 -20 -20 -20 -20 -20 -20 -14 -20 -20 -20
9 28 25 30 26 23 38 40 26 -7 6 28 28 11 9 6 -18 -20 -20 -20 -20 -20 -20 -20 -20 -20 -20 -20 -20 -20 -20 -20 -20 -20 -20 -20 -20 -20 -20 -12 -20 -20 -20
6 12 20 18 31 34 30 19 16 1 30 7 9 -4 -16 -12 -20 -20 -20 -20 -20 -20 -20 -20 -20 -20 -20 -20 -20 -20 -20 -20 -20 -20 -20 -20 -20 -20 -20 -20 12 -20 -20
9 14 16 23 33 29 27 26 29 30 6 15 15 4 -19 -20 -20 -20 -20 -20 -20 -20 -20 -20 -20 -20 -20 -20 -20 -20 -20 -20 -20 -20 -20 -20 -20 -20 -20 -20 -15 8 6
16 26 31 22 13 7 -0 -5 11 13 13 6 -18 -20 -20 -20 -20 -20 -20 -20 -20 -20 -20 -20 -20 -20 -20 -20 -20 -20 -20 -20 -20 -20 -20 -20 -20 -20 -20 -20 -20 -20 -20
-20 -14 -13 4 5 25 3 -9 -20 -20 -20 -20 -20 -20 -20 -20 -20 -20 -20 -20 -20 -20 -20 -20 -20 -20 -20 -20 -20 -20 -20 -20 -20 -20 -20 -20 -20 -20 -20 -20 -20 -20 -20
-20 -18 -4 -0 -1 22 21 -20 -20 -20 -20 -20 -20 -20 -20 -18 -20 2 -20 -20 -20 -20 -20 -20 -20 -20 -20 -20 -20 -20 -20 -20 -20 -20 -20 -20 -20 -20 -20 -20 -20 -20 -20
5 -20 -20 -20 -20 -20 -15 -20 -20 -20 -20 -20 -20 -20 -20 -20 -20 -20 -20 -20 -20 -20 -20 -20 -20 -20 -20 -20 -20 -20 -20 -20 -20 -20 -20 -20 -20 -20 -20 -20 -20 -20 -20
-20 -20 -20 -20 -20 20 -10 -20 -20 -20 -20 -20 -20 -20 -3 -20 -20 -20 -20 -20 -20 -20 -20 -20 -20 -20 -20 -20 -20 -20 -20 -19 -18 -20 -20 -20 -20 -20 -20 -20 -20 -20 -20
-20 -20 -20 -20 -20 -20 -20 -20 -20 -20 -20 -20 -20 -20 -7 -14 -20 -20 -20 -20 -20 -20 -20 -20 -20 -20 -20 -20 -20 -20 -20 -20 -20 -20 -20 -20 -20 -20 -20 -20 -20 -20 -20
-20 -20 -20 -20 -20 -20 -20 -20 -20 -20 -20 -20 -20 -20 3 -2 -20 -20 -20 -6 -20 -20 -20 -20 -20 -20 -20 -20 -20 -20 -20 -20 -20 -20 -20 -20 -20 -20 -20 -20 -20 -20 -20
-20 -20 -20 -20 -20 -20 -20 -20 -20 -20 -20 -20 -20 -20 -15 -20 -20 -20 19 -1 16 -20 -20 -20 -20 -20 -20 -20 -20 -19 -20 -20 -20 -20 -20 -20 -20 -20 -20 -20 -20 -20 -20
-20 -20 -20 -20 -20 -20 -20 -20 -20 -20 -18 -1 15 30 -20 -20 -20 5 -20 2 -7 -20 -11 -12 -20 -20 6 -20 -20 17 -20 -20 -20 -20 -20 -20 -20 -20 -20 -20 -20 -20 -20

GFSSE_prec_radar_048.txt.gz
Reflectivity
31 -20 4 4 -6 -20 -20 -20 -20 -20 -20 -20 -20 -20 -20 -20 -20 -20 -20 -20 -12 -20 -20 -20 -20 -20 -20 -20 -20 -20 -20 -20 -20 -20 -20 -20 -20 -20 -20 -20 -13 3 5
40 17 11 10 -20 -4 -8 -20 -20 -20 -20 -20 -20 -20 -20 -20 -20 -20 -20 -20 5 -20 -20 -20 -20 -20 -20 -20 -20 -20 -20 -20 -20 -20 -20 -20 -20 -20 -14 -20 -20 -20 -8
45 39 13 14 -18 4 -0 -6 -20 -20 -20 -20 -20 -20 -20 -20 -20 -20 -20 -20 -15 -20 -20 -20 -20 -20 -20 -20 -20 -20 -20 -20 -20 -16 -20 -20 -2 -17 -4 3 -18 -20 -20
41 31 23 18 14 4 2 -12 -15 -20 -20 -20 -20 -20 -20 -20 -20 -20 -20 -20 -20 -20 -20 -20 -20 -20 -20 -20 -20 -20 -20 -20 -20 -20 -20 -20 -20 -6 -16 -20 -12 -15 -20
27 18 42 21 1 -10 -2 -4 -20 -20 -20 -20 -20 -20 -20 -20 -20 -20 -20 -20 -20 -20 -20 -20 -20 -20 -20 -20 -20 -20 -20 -20 -20 -20 -20 -20 -20 -20 -20 -20 -20 -20 -20
25 22 1 37 39 33 7 -20 -20 -20 -20 -20 -20 -20 -20 -20 -20 -20 -20 -20 -20 -20 -20 -20 -20 -20 -20 -20 -20 -20 -20 -20 -20 -20 -20 -20 -20 -20 -20 -20 -20 -20 -20
-16 7 6 41 43 38 -13 -16 -20 -20 -20 -20 -20 -20 -20 -20 -20 -20 -20 -20 -20 -20 -20 -20 -20 -20 -20 -20 -20 -20 -20 -20 -20 -20 -20 -20 -20 -20 -20 -20 -20 -20 -20
-10 -13 -5 23 22 4 13 -15 -20 5 -10 -20 -20 -20 -20 -20 -20 -20 -20 -20 -20 -20 -20 -20 -20 -20 -20 -20 -20 -20 -20 -20 -20 -20 -20 -20 -20 -20 -20 -20 -20 -20 -20
-3 13 -17 33 33 32 23 11 8 -1 -12 -20 -7 -20 -20 -20 -20 -20 -20 -20 -20 -20 -20 -20 -20 -20 -20 -20 -20 -20 -20 -20 -20 -20 -20 -20 -20 -20 -20 -20 -20 -20 -20
25 -2 -19 24 27 28 31 18 8 8 -20 27 -4 -20 -20 -20 -20 -20 -18 -11 -20 -20 -20 -20 -20 -20 -20 -20 -20 -20 -20 -20 -20 -20 -20 -20 -20 -20 -20 -20 -20 -20 -20
18 21 6 34 16 32 41 31 14 -2 10 -12 -9 -16 16 -7 -1 -3 10 -13 -20 -20 -20 -20 -20 -20 -20 -20 -20 -20 -20 -20 -20 -20 -20 -20 -20 -20 -20 -20 -20 -20 -20
-5 19 31 13 4 -20 16 36 29 32 18 18 26 23 8 10 6 11 8 -1 -20 -20 -20 -20 -20 -20 -20 -20 -20 -20 -20 -20 -20 -20 -20 -20 -20 -20 -20 -20 -20 -20 -20
-3 -10 2 1 10 -20 -4 20 26 31 13 20 12 16 12 10 22 5 -8 -20 -20 -20 -20 -20 -20 -20 -20 -20 -20 -20 -20 -20 -20 -20 -20 -20 -20 -15 -19 -20 -20 -20 -20
10 17 8 9 24 5 -3 -1 18 30 27 13 -3 20 21 23 14 14 -14 -20 -20 -20 -20 -20 -20 -20 -20 -20 -20 -20 -20 -20 -20 -20 -20 -20 -20 -20 -20 -20 -20 -20 -20
12 7 25 9 -14 8 9 29 35 25 9 16 22 -0 18 17 13 6 4 2 -20 -20 -20 -20 -20 -20 -20 -20 -20 -20 -20 -20 -20 -20 -20 -20 -20 -20 -20 -6 -17 -9 -20
18 26 12 26 18 24 40 31 32 29 23 26 24 18 4 2 6 7 -10 -19 -12 -20 -20 -20 -20 -20 -20 -20 -20 -20 -20 -20 -20 -20 -20 -20 -20 -20 -20 -20 6 5 -20
-19 9 17 26 21 25 18 31 26 18 11 13 -5 -1 5 0 -18 -20 -20 -20 -20 -20 -20 -20 -20 -20 -20 -20 -20 -20 -20 -20 -20 -20 -20 -20 -20 -20 -20 -20 -19 11 9
-9 4 -5 13 25 20 31 30 27 13 -20 -20 0 5 -9 -16 -19 -20 -20 -20 -20 -20 -20 -20 -20 -20 -20 -20 -20 -20 -20 -20 -20 -20 -20 -20 -20 -20 -20 -20 -20 -20 -20
-20 -2 15 21 1 -1 -0 10 14 -20 -20 -13 -19 -19 -18 -20 -20 -20 -20 -20 -20 -20 -20 -20 -20 -20 -20 -20 -20 -20 -20 -20 -20 -20 -20 -20 -20 -20 -20 -20 -20 -20 -20
-20 -20 -20 -18 4 8 -11 -12 -20 -13 -20 -20 -20 -20 -20 -20 -20 -20 -20 -20 27 -20 -20 -20 -20 -20 -20 -20 -20 -20 -20 -20 -20 -20 -20 -20 -20 -20 -20 -20 -20 -20 -20
-20 -20 -20 -16 0 -0 -20 -19 -9 -20 -20 -20 -20 -20 -20 -20 -20 -20 -20 -20 -10 -20 -20 -20 -20 -20 -20 -20 -20 -20 -20 -20 -20 -20 -20 -20 -20 -20 -20 -20 -20 -20 -20
-20 -20 -20 -20 -12 -20 -20 -20 -20 -20 -20 -20 -20 -20 -20 4 -20 -20 -7 -20 2 -20 -20 -20 -20 -20 -20 -20 -20 -20 -20 -20 -20 -20 -20 -20 -20 -20 -20 -20 -20 -20 -20
-20 -20 -20 -20 -20 -20 4 -6 2 -20 -20 -20 -20 -20 -20 -20 -20 -20 -20 -9 -20 -20 -20 -20 -20 -20 -20 -20 -20 -20 -20 -20 -20 -20 -20 -20 -20 -20 -20 -20 -20 -20 -20
-20 -20 -20 -20 -20 -20 -20 15 -20 -17 -20 -20 -20 -20 -20 -20 -20 -20 -2 -20 -20 22 2 -20 -20 -20 -20 -20 -20 -20 -20 -20 -20 -20 -20 -20 -20 -20 -20 -20 -20 -20 -20
-20 -20 -20 -20 -20 -20 -20 19 16 19 -20 -20 -20 -17 -20 -20 -20 10 26 21 -17 -20 15 -7 -20 -16 -5 -20 -20 -7 -5 -12 16 -19 -20 -20 -20 -20 -20 -20 -20 -20 -20
-20 -20 -20 -20 -20 -20 -20 -20 -20 -9 -16 -20 -12 -1 7 34 -9 -11 -7 22 -4 -20 -12 -9 -18 -20 -14 8 5 9 -12 -20 11 -6 0 -16 -20 -20 0 8 -20 -20 -20

GFSSE_prec_radar_051.txt.gz
Reflectivity
31 34 6 6 1 -20 -20 -20 -20 -20 -20 -20 -20 -20 -20 -20 -20 -20 -20 -20 -20 -20 -20 -20 -20 -20 -20 -20 -20 -20 -20 -20 -20 -20 -20 -20 -20 -20 -20 -20 -11 2 -5
33 -17 31 9 6 -1 -20 -20 -20 -20 -20 -20 -20 -20 -20 -20 -20 -10 -20 -20 -20 -20 -20 -20 -20 -20 -20 -20 -20 -20 -20 -20 -20 -20 -20 -20 -1 -2 -20 -20 -20 -5 8
30 34 33 33 6 7 -1 -20 -20 -20 -20 -20 -20 -20 -20 -20 -20 10 -20 -20 -20 -20 -20 -20 -20 -20 -20 -20 -20 -20 -0 -20 0 -20 -20 -20 -20 1 2 -18 -20 -19 4
-20 4 37 43 19 -0 -0 -20 -20 -20 -20 -20 -20 -20 -20 -20 -20 3 -20 -20 -20 -20 -20 -20 -20 -20 -20 -20 -20 -20 -20 -20 -20 -20 -20 -20 -20 -20 -20 -20 -20 -20 -20
-13 13 21 40 30 14 3 -20 -20 -20 -20 -20 -20 -20 -20 -20 -20 -20 -20 -20 -20 -20 -20 -20 -20 -20 -20 -20 -20 -20 -20 -20 -20 -20 -20 -20 -20 -20 -20 -20 -20 -20 1
-5 -3 17 37 32 17 -9 -19 -20 -20 -20 -20 -20 -20 -20 -20 -20 -20 -20 -20 -20 -20 -20 -20 -20 -20 -20 -20 -20 -20 -20 -20 -20 -20 -20 -20 -20 -20 -20 -20 -17 -19 12
12 12 16 28 33 39 45 23 -17 -20 -20 -20 -20 -20 -20 -20 -20 -20 -20 -20 -20 -20 -20 -20 -20 -20 -20 -20 -20 -20 -20 -20 -20 -20 -20 -20 -20 -20 -20 -20 -20 -20 -20
19 32 36 -12 5 45 41 35 17 -20 -20 -20 -20 -20 -20 -20 -20 -20 -20 -20 -20 -20 -20 -20 -20 -20 -20 -20 -20 -20 -20 -20 -20 -20 -20 -20 -20 -20 -20 -20 -20 -20 -20
-16 -10 -1 12 12 32 43 34 10 10 -20 -20 -20 -20 -20 -20 -20 -20 -20 -20 -20 -20 -20 -20 -20 -20 -20 -20 -20 -20 -20 -20 -20 -20 -20 -20 -20 -20 -20 -20 -20 -20 -20
17 7 30 12 21 30 44 36 21 -20 -20 -20 -20 -20 -20 -20 -20 -20 -20 -19 -20 -20 -20 -20 -20 -20 -20 -20 -20 -20 -20 -20 -20 -20 -20 -20 -20 -20 -20 -20 -20 -20 -20
19 31 7 2 12 34 25 33 26 -19 3 -8 -20 -20 1 -20 -16 -14 -9 8 2 -12 -20 -20 -20 -20 -20 -20 -20 -20 -20 -20 -20 -20 -20 -20 -20 -20 -20 -20 -20 -20 -20
34 24 7 29 24 29 25 -13 14 19 -12 6 -1 -20 -14 -4 9 6 14 8 7 -20 -20 -20 -20 -20 -20 -20 -20 -20 -20 -20 -20 -20 -20 -20 -20 -20 -20 -20 -20 -20 -20
13 3 29 10 11 17 5 -20 -20 1 22 22 2 -7 17 7 11 14 23 22 14 -20 -20 -20 -20 -20 -20 -20 -20 -20 -20 -20 -20 -20 -20 -20 -20 -16 -16 -20 -20 -20 -20
-16 -13 3 -3 -12 3 -20 -17 -20 -13 -5 -6 13 9 6 -12 -2 12 8 16 19 -2 -20 -20 -20 -20 -20 -20 -20 -20 -20 -20 -20 -20 -20 -20 -20 -20 -20 -20 -20 -20 -20
-10 2 -9 -20 -15 3 -6 12 -1 -1 14 -7 -3 -5 7 -11 0 -8 7 -8 -19 -20 -20 -20 -20 -20 -20 -20 -20 -20 -20 -20 -20 -20 -20 -20 -20 -20 -20 -13 -20 -14 -20
27 12 -20 -17 -5 -2 27 -14 3 -1 3 5 -19 2 -3 -17 -15 -20 -7 -4 -20 -20 -20 -20 -20 -20 -20 -20 -20 -20 -20 -20 -20 -20 -20 -20 -20 -20 -20 -20 0 7 -20
15 17 22 4 1 9 6 15 22 29 16 -2 -20 12 -1 -20 -20 -20 -19 -15 -20 -20 -20 -20 -20 -20 -20 -20 -20 -20 -20 -20 -20 -20 -20 -20 -20 -20 -20 -20 -20 15 6
3 10 21 13 21 3 2 14 21 9 2 -15 10 -13 -20 -6 -4 -16 33 -20 6 -12 -20 -20 -20 -20 -20 -20 -20 -20 -20 -20 -20 -20 -20 -20 -20 -20 -20 -20 -20 -20 3
-11 1 -17 -14 -10 -7 -20 4 -0 1 14 -16 -20 -16 5 1 -10 -20 -20 -20 -20 1 -20 -20 -20 -20 -20 -20 -20 -20 -20 -20 -20 -20 -20 -20 -20 -20 -20 -20 -20 -20 -20
-0 -2 -10 -19 -20 -15 8 5 -12 6 -20 -20 -20 -20 -20 -20 -20 -20 -20 -6 -20 13 -20 -20 -20 -20 -20 -20 -20 -20 -20 -20 -20 -20 -20 -20 -20 -20 -20 -20 -20 -20 -20
-20 -20 -20 -20 -20 -20 -20 -20 -20 -20 -20 -20 -20 -20 -20 -20 -20 -20 -20 4 -20 -20 -20 -20 -20 -20 -20 -20 -20 -20 -20 -20 -20 -20 -20 -20 -20 -20 -20 -20 -20 -20 -20
-20 -20 -20 -20 -20 -20 -19 -20 -20 -20 -20 -20 -20 -20 -20 -20 -20 -20 -20 -20 -20 -8 -20 -20 -16 -20 -20 -20 -20 -20 -20 -20 -20 -20 -20 -20 -20 -20 -20 -20 -20 -20 -20
-20 -20 -20 -20 -20 -20 -20 -20 -20 -20 -20 -20 -20 -20 -20 -20 -20 -20 -20 -20 -20 19 -20 -20 -20 -1 -20 -20 -20 -20 -20 -20 -20 -20 -20 -20 -20 -20 -20 -20 -20 -20 -20
-20 -20 -20 -20 -20 -20 -20 -20 -20 -20 -20 -20 -20 -20 -20 -11 -14 20 -20 -19 -20 -20 8 7 17 -20 -20 -20 -20 -20 -20 -20 -20 -15 -20 -20 -20 -20 -20 -20 -20 -20 -20
-20 -20 -20 -20 -20 -20 -20 -20 -20 -20 -20 -20 -20 -20 -20 -20 -18 29 -17 32 -6 3 -20 20 19 -20 -20 -20 -20 25 1 -20 8 -12 -7 -13 -20 -20 -20 -20 -20 -20 -20
-20 -20 -20 -20 -20 -20 -20 -20 -20 -20 -20 -20 -20 -20 -13 26 -12 14 38 30 9 -11 24 -9 -20 -20 -5 18 -9 -5 16 8 4 -20 12 -19 -20 -20 -20 -20 -20 -20 -20

GFSSE_prec_radar_054.txt.gz
Reflectivity
11 -20 -10 7 -10 -1 -17 -20 -14 -20 -20 -20 -20 -20 -20 -20 -20 -20 -20 -20 -20 -20 -20 -20 -20 -20 -20 -20 -20 -20 -20 -20 -20 -20 -20 -20 4 11 8 7 -4 -7 10
-20 -20 8 36 8 -6 -20 -20 -20 -20 -20 -20 -20 -20 -20 -20 -20 -20 -20 -20 -20 -20 -20 -20 -20 -20 -20 -20 -20 -20 -20 -20 -20 -20 -10 -1 -20 -19 -19 -20 1 8 13
-20 -20 8 45 38 -3 -17 -20 -20 -20 -20 -20 -20 -20 -20 -20 -20 -20 -20 -20 -20 -20 -20 -20 -20 -20 -20 -20 -20 -20 -20 -20 -20 -20 -20 -20 -20 -18 -20 -20 -1 7 12
-20 -20 26 28 40 36 7 -20 -20 -20 -20 -20 -20 -20 -20 -20 -20 -20 -20 -20 -20 -20 -20 -20 -20 -20 -20 -20 -20 -20 -20 -20 -20 -20 -20 -20 -20 -14 -20 -20 -2 -19 16
-20 -15 1 7 4 44 19 -20 -18 -19 -20 -20 -20 -7 0 -20 -20 -20 -20 -20 -20 -20 -20 -20 -20 -20 -20 -20 -20 -20 -20 -20 -20 -20 -20 -20 -20 -20 -20 -20 15 20 11
-20 -20 -20 -15 -10 23 25 19 -5 -20 -20 -20 -20 5 10 -20 -3 -20 -20 -20 -20 -20 -20 -20 -20 -20 -20 -20 -20 -20 -20 -20 -20 -20 -20 -20 -20 -20 -20 -20 -20 -4 11
-20 -20 -20 -20 -8 30 36 39 32 -5 -20 -20 -20 -20 -20 -20 -20 -20 -20 -20 -20 -20 -20 -20 -20 -20 -20 -20 -20 -20 -20 -20 -20 -20 -20 -20 -20 -20 -20 -20 -20 -20 -20
18 -1 24 -13 32 38 48 47 41 7 -5 -20 -20 -20 -20 -20 -20 -20 -20 -20 -20 -20 -20 -20 -20 -20 -20 -20 -20 -20 -20 -20 -20 -20 -20 -20 -20 -20 -20 -20 -20 -20 -20
33 25 -9 8 33 33 23 25 43 13 1 6 6 -7 -20 -20 -20 -20 -20 -20 -20 -20 -20 -20 -20 -20 -20 -20 -20 -20 -20 -20 -20 -20 -20 -20 -20 -20 -20 -20 -20 -20 -20
38 14 2 2 22 10 -3 26 30 33 18 -6 5 -20 -20 -20 -20 -20 -20 -20 -20 -20 -20 -20 -20 -20 -20 -20 -20 -20 -20 -20 -20 -20 -20 -20 -20 -20 -20 -20 -20 -20 -20
45 37 12 1 -20 -6 -1 19 37 23 20 8 -16 -16 -20 -20 -20 -20 -7 5 -19 -0 -20 -20 -20 -20 -20 -20 -20 -20 -20 -20 -20 -20 -20 -20 -20 -20 -20 -20 -20 -20 -20
25 11 19 17 24 24 36 30 35 26 36 5 -0 -20 -19 -6 -16 -20 -4 -3 -0 21 8 -20 -20 -20 -20 -20 -20 -20 -20 -20 -20 -20 -20 -20 -20 -20 -20 -20 -19 -1 0
-3 8 15 35 35 28 19 28 17 11 7 -8 10 7 -18 11 -15 6 12 6 7 9 -18 -20 -20 -20 -20 -20 -20 -20 -20 -20 -20 -20 -20 -20 -20 -20 -20 -20 -16 -0 3
31 28 -3 31 24 15 18 10 -6 -4 -14 -20 6 15 8 17 -0 -17 -13 -16 -7 4 16 11 -20 -20 -20 -20 -20 -20 -20 -20 -20 -20 -20 -20 -20 -20 -11 -9 14 -20 -20
-4 14 16 -3 -2 1 6 12 14 -17 -16 -9 3 -7 -14 11 -20 -20 -20 -14 -20 -20 -20 -20 -20 -20 -20 -20 -20 -20 -20 -20 -20 -20 -20 -20 -20 -20 -20 -20 -5 -20 -20
17 7 16 -15 -9 -20 5 -7 18 14 -2 17 2 -16 13 -1 -20 -18 -20 -18 -9 -20 -20 -20 -20 -20 -20 -20 -20 -20 -20 -20 -20 -20 -20 -20 -20 -20 -20 -20 -11 -1 -20
-1 -10 10 12 -14 2 28 36 31 20 14 26 10 -12 2 -19 -20 -20 -20 -20 -20 -20 -20 -20 -20 -20 -20 -20 -20 -20 -20 -20 -20 -20 -20 -20 -20 -20 -20 -20 -20 -14 5
11 -4 23 -19 9 -6 -8 18 4 5 9 25 -7 -8 -7 -20 -20 -20 -18 -3 -13 -20 -20 -20 -20 -20 -20 -20 -20 -20 -20 -20 -20 -20 -20 -20 -20 -20 -20 -20 -20 -20 -20
23 22 28 10 12 10 19 28 10 16 17 19 -19 -12 -19 -20 -20 -0 -17 -10 -20 -20 -20 -20 -20 -20 -20 -20 -20 -20 -20 -20 -20 -20 -20 -20 -20 -20 -20 -20 -20 -20 -20
-20 -20 12 16 19 -7 -7 11 13 -16 -2 -20 -20 -20 -20 -5 -17 -18 -20 -20 16 -20 -20 -20 -20 -20 -20 -20 -20 -20 -20 -20 -20 -20 -20 -20 -20 -20 -20 -20 -20 -20 -20
-20 -9 -20 -20 -17 14 14 -1 -20 -20 3 -11 -20 -20 -20 -20 -20 -20 -20 -20 -19 -20 -20 -20 -20 -20 -20 -20 -20 -20 -20 -20 -20 -20 -20 -20 -20 -20 -20 -20 -20 -20 -20
-20 -20 -20 -11 -5 -20 -9 -12 -20 -20 -11 -20 -20 -20 -20 -20 -20 -20 -20 -20 -20 -20 -20 -20 -20 -20 -20 -20 -20 -20 -20 -20 -20 -20 -20 -20 -20 -20 -20 -20 -20 -20 -20
-20 -20 -20 -20 -20 -20 -20 -20 -20 -20 -20 -20 -10 -15 -20 -20 -20 -20 -20 -20 -3 -20 -4 -20 -20 -20 -8 -20 -20 -1 -10 -20 -20 -18 -20 -20 -20 -20 -20 -20 -20 -20 -20
-20 -20 -20 -20 -20 -20 -20 -20 -20 -20 -20 -20 -20 -20 -20 -20 -20 -20 -20 -20 10 -20 -20 -20 -14 -19 3 -20 -20 -18 -19 -20 -9 24 -10 -5 -20 -20 -20 -20 -20 -20 -20
-20 -20 -20 -20 -20 -20 -20 -20 -20 -20 -20 -20 -20 -20 -20 -20 -20 -20 -20 -20 -20 -20 -9 26 7 20 22 -5 -18 -20 12 26 17 3 -12 -11 -20 -19 -20 -20 -20 -20 -20
-20 -20 -20 -20 -20 -20 -20 -20 -20 -20 -20 -20 -20 -20 -20 -20 -20 -20 -20 -8 6 -3 1 26 36 26 20 -20 4 -6 10 34 14 11 20 -10 -20 -20 -20 -20 -20 -20 -20

GFSSE_prec_radar_057.txt.gz
Reflectivity
7 10 10 5 11 3 5 5 15 -19 -15 -20 -20 -20 -20 -20 -20 -20 -20 -20 -20 -20 -20 -20 -20 -20 -20 -20 -20 -20 -20 -17 -20 -20 11 14 18 16 9 -1 -20 -20 13
13 -20 -20 -20 -20 -19 -20 -4 -0 -20 20 -20 -20 -20 -20 -20 -20 -20 -20 -20 -20 -20 -20 -20 -20 -20 -20 -20 -20 -20 -20 -18 7 2 -14 -19 14 13 11 0 15 -2 14
16 -19 -20 -19 -18 -19 -6 13 -11 -20 26 -1 1 -19 -20 -20 -20 -20 -20 -20 -20 -20 -20 -20 -1 -3 -7 -20 -20 -20 -20 -20 -20 -20 -20 -20 -20 -2 -3 -20 -12 10 12
-20 25 -20 1 -20 -6 36 30 0 -5 -13 11 1 -19 -20 -20 -20 -20 -20 -20 -20 -20 -20 -20 -20 -20 -20 -20 -20 -20 -20 -20 -20 -20 -20 -20 -20 1 -0 -7 12 9 19
-15 -20 -20 -20 -20 -8 37 33 21 9 13 15 -14 -19 -20 -20 -20 -20 -20 -20 -20 -12 -19 -20 -20 -20 -20 -20 -20 -20 -20 -20 -20 -20 -20 -20 -20 -15 9 18 17 17 -15
-20 -20 -20 -20 -11 13 20 28 27 29 25 14 4 -20 -20 -20 -20 -20 -20 -20 -20 -20 -20 -20 -20 -20 -20 -20 -20 -20 -20 -20 -20 -20 -20 -20 -20 -20 -20 -20 -19 -20 -10
-20 -20 -20 -20 -2 21 30 -6 32 36 -14 15 -2 -20 -20 -20 -20 -20 -20 1 -20 -20 -20 -20 -20 -20 -20 -20 -20 -20 -20 -20 -20 -20 -20 -20 -20 -20 -20 -20 -20 -20 -20
-20 -9 -20 -18 24 33 32 30 36 34 4 26 -3 -3 -20 -20 -20 -20 -18 -11 -20 -20 -20 -20 -20 -20 -20 -20 -20 -20 -20 -20 -20 -20 -20 -20 -20 -20 -20 -20 -19 -20 -20
-20 34 -20 21 1 16 36 35 45 34 28 6 14 -12 -20 -20 -20 -20 -20 -20 -20 -20 -20 -20 -20 -20 -20 -20 -20 -20 -20 -20 -20 -20 -20 -20 -20 -20 -20 -20 -20 -20 -20
-5 8 0 29 34 23 36 42 35 36 28 -6 4 4 -20 -20 -20 -20 -20 -20 -20 -20 -20 -20 -20 1 -20 -20 -20 -20 -20 -20 -20 -20 -20 -20 -20 -20 -20 -20 -20 -20 -20
3 35 37 33 18 19 25 21 28 21 33 21 15 -20 -20 -20 -20 -20 -20 -20 -20 -15 -8 -17 -19 12 -14 -20 -20 -20 -20 -20 -20 -20 -20 -20 -20 -20 -20 -20 -20 -20 -20
30 19 46 34 32 32 17 -3 22 28 13 24 4 2 -20 -5 -20 -20 -20 -20 -8 -3 5 1 2 3 -7 -20 -20 -20 -20 -20 -20 -20 -20 -20 -20 -20 -20 -20 -20 -20 -20
31 30 32 35 25 29 -3 17 28 5 31 31 24 11 -20 -20 -20 -20 -20 -20 -4 8 -20 -6 -1 -19 -14 -20 -20 -20 -20 -20 -20 -20 -20 -20 -20 -20 -20 5 -20 -20 -6
28 22 29 16 33 22 20 26 25 12 9 23 28 10 -20 -20 -19 11 5 -3 -8 -18 -20 -19 -20 -19 10 -15 -20 -20 -20 -20 -20 -20 -20 -20 -20 -20 -10 -4 10 8 -20
28 24 19 28 23 -9 6 6 14 -11 -11 3 12 0 -20 -20 7 4 -5 -20 -18 -20 -20 -20 -20 -20 -19 -20 -20 -20 -20 -20 -20 -20 -20 -20 -20 -20 -20 -20 14 3 -3
17 -2 7 22 25 1 5 2 -4 -4 -20 -20 -19 -20 -20 -20 -0 15 -5 -20 3 -20 -20 -20 -20 -20 -20 -20 -20 -20 -20 -20 -20 -20 -20 -20 -20 -20 -20 -13 3 5 2
18 40 -4 12 14 15 -0 11 -9 -20 -18 1 -17 -16 -20 -20 -20 11 -20 -20 3 -20 -20 -20 -20 -20 -20 -20 -20 -20 -20 -20 -20 -20 -20 -20 -20 -20 -20 -20 -20 -11 -9
21 -13 -20 15 28 9 -1 26 28 -6 -6 -18 -7 8 2 -19 -20 -10 -10 -9 -19 -20 -20 -20 -20 -20 -20 -20 -20 -20 -20 -20 -20 -20 -20 -20 -20 -20 -20 -20 -20 -20 -20
-5 31 9 21 15 14 17 10 11 7 9 2 12 12 -0 -19 -20 13 -6 -20 -20 -20 -20 -20 -20 -20 -20 -20 -20 -20 -20 -20 -20 -20 -20 -20 -20 -20 -20 -20 -20 -20 -20
16 -6 16 24 -4 26 8 22 15 2 8 -3 -4 18 -1 -20 -0 -8 -10 -20 -14 -9 23 -20 -20 -20 -20 -20 -20 -20 -20 -20 -20 -20 -20 -20 -20 -20 -20 -20 -20 -20 -20
9 -20 -20 26 26 27 9 16 24 23 -14 -2 1 22 20 5 -7 -17 -20 -11 -4 -20 -20 -20 -20 -20 -20 -20 -20 -20 -20 -20 -20 -20 -20 -20 -20 -20 -20 -20 -20 -20 -20
5 13 -20 -17 2 25 23 25 -6 6 -3 -7 -12 18 -7 14 -20 -20 -20 -18 -20 -20 -20 3 -20 -20 -20 -20 -20 -20 -20 -20 -20 -17 -20 -20 -20 -20 -20 -20 -20 -20 -20
-8 2 -15 -20 -20 -18 -8 -3 -11 -14 -3 2 -4 0 -20 -20 -20 -20 -20 -20 -20 -20 -20 -20 -20 -20 -20 -20 -20 -20 -8 16 -20 -20 8 -14 20 -20 -20 -20 -20 -20 -20
-20 -19 -20 -20 -20 -20 -20 -20 -20 -20 -19 -7 -20 -20 -20 -20 -20 -20 -20 -20 -20 -20 -20 -20 -20 -20 -17 -20 12 -19 -6 -20 26 -20 -6 -1 -17 -16 9 -20 -20 -20 -20
-20 -20 -20 -20 -20 -20 -20 -20 -20 -20 -20 -20 -20 -20 -20 -20 -20 -20 -20 -20 -20 -20 -20 -18 27 21 16 5 15 6 18 -20 -7 22 14 -13 -16 22 -12 -20 -20 -20 -20
-20 -20 -20 -20 -20 -20 -20 -20 -20 -20 -20 -20 -20 -20 -20 -20 -20 -20 -20 -20 -20 -18 -9 -6 -2 4 20 33 33 8 12 -4 16 2 -20 -20 -5 -5 4 -17 -20 -20 -20

GFSSE_prec_radar_060.txt.gz
Reflectivity
-11 -14 -20 23 18 -13 -20 -5 -20 -20 22 7 -20 -20 -20 -20 -20 -20 -20 -20 -20 -20 -20 -20 -20 -20 -13 -4 -15 -20 -20 -20 -9 11 13 13 15 3 1 -17 2 -20 12
6 7 -5 12 -19 -18 -20 -20 -20 -20 20 17 -19 -20 -20 -20 -20 -20 -20 -20 -20 -20 -20 -20 -20 -20 -20 -20 2 -5 -12 -18 -20 -0 12 10 14 17 13 -4 -20 -20 -14
6 15 -20 -17 -20 -20 5 -20 -20 -20 -20 9 -19 -20 -20 -20 -20 -20 -20 -20 -20 -20 -20 -20 -20 -20 -20 -20 -20 -20 -20 -20 -20 -20 -20 -20 -7 -1 -20 -19 12 13 6
-0 -15 -20 -20 -20 4 -7 -20 -20 -20 -3 -12 1 -20 -20 -20 -20 -19 -20 -20 -20 -12 -6 -6 1 -20 -20 -20 -20 -20 -20 -20 -20 -20 -20 -20 -20 -3 -9 3 18 11 -12
-14 15 -10 -18 3 18 -20 -20 -20 -20 -20 -7 -13 -18 -7 -20 -20 -20 -20 -20 -20 -14 -14 -12 -20 -17 -20 -20 -20 -20 -20 -20 -20 -20 -20 -20 -20 14 14 -9 -20 7 17
-20 1 31 17 4 -20 -20 -20 -20 -3 5 -7 13 0 -16 0 5 -20 -20 -20 -20 -20 -20 -4 -20 -20 -20 -20 -20 -20 -20 -20 -20 -20 -20 -20 -20 -20 -20 -20 -12 -6 -20
-10 -20 -20 -20 -20 -20 -20 -18 -16 -8 -15 -11 -13 19 -1 -20 -20 -15 -20 -20 -20 -14 -7 -20 -20 -20 -20 -20 -20 -20 -20 -20 -20 -20 -20 -20 -20 -20 -20 -20 -20 -20 -20
-1 -19 -4 1 -20 -20 -19 -20 -20 -17 11 -1 -3 -11 -20 -20 -20 7 -20 -20 -20 -20 -20 -20 -20 -20 -20 -20 -20 -20 -20 -20 -20 -20 -20 -20 -20 -20 -20 -20 -20 -20 -20
-19 -20 -0 -1 25 25 -20 4 -12 31 32 8 31 -14 -20 6 -20 -20 -20 -20 -3 -18 -20 -20 -20 -20 -20 -20 -20 -20 -20 -20 -20 -20 -20 -20 -20 -20 -20 -20 -20 -20 -20
-20 -2 10 32 2 26 -20 -6 -2 23 23 16 13 4 -20 -20 -20 -20 -20 -20 -20 -20 -20 -20 -20 -20 -20 -20 -20 -20 -20 -20 -20 -20 -20 -20 -20 -20 -20 -20 -20 -20 -20
-6 24 32 31 29 19 14 17 34 35 35 31 15 5 -5 -20 -20 -20 -20 -20 -20 -20 -6 -9 3 -11 -20 -18 -20 -20 -20 -20 -20 -20 -20 -20 -20 -20 -20 -20 -20 -20 -20
20 21 28 34 37 35 30 36 12 24 25 32 18 16 13 -15 -20 -20 -20 -20 -20 -20 -5 -16 -20 -20 -20 -20 -20 -20 -20 -20 -20 -20 -20 -20 -20 -20 -20 -20 -20 -20 -20
33 30 35 37 40 44 43 23 18 1 29 33 17 16 12 -14 -20 -20 -20 -20 -19 -20 -11 -5 -19 -20 -20 -20 -20 -20 -20 -20 -20 -20 -20 -20 -20 -20 -20 -20 -19 -20 -20
14 28 21 42 38 34 30 22 13 -18 18 30 31 8 2 -5 -20 -20 -20 -20 -20 -20 -10 -18 -20 -20 -20 -20 -20 -20 -20 -20 -20 -20 -20 -20 -20 -20 -20 -20 -3 -13 -15
-3 14 41 30 13 12 -7 -5 19 12 11 23 29 15 17 12 -20 -20 -20 -19 -20 -20 -20 -20 -20 -20 -20 -20 -20 -20 -20 -20 -20 -20 -20 -20 -20 -20 -20 -1 9 5 4
12 18 16 21 23 19 11 -10 -3 -7 -9 8 32 26 21 11 -17 -20 -20 13 -20 -20 -20 -20 -20 -20 -20 -20 -20 -20 -20 -20 -20 -20 -20 -20 -20 -20 -20 -20 1 1 9
22 22 20 -1 21 18 17 2 -17 -7 -20 -9 10 22 -20 -20 -20 -20 -20 17 -7 -20 -20 -20 -20 -20 -20 -20 -20 -20 -20 -20 -20 -20 -20 -20 -20 -20 -20 -20 -20 -7 6
5 -20 18 34 24 24 19 7 27 18 -7 -16 -7 -3 -20 -2 -20 -20 -20 -1 -1 -20 -20 -20 -20 -20 -20 -20 -20 -20 -20 -20 -20 -20 -20 -20 -20 -20 -20 -20 -20 -18 7
2 17 20 13 5 19 26 12 21 -6 -16 9 2 -1 11 3 -18 -19 1 -7 -20 -20 -20 -20 -20 -20 -20 -20 -18 -20 -20 -20 -20 -20 -20 -20 -20 -20 -20 -20 -20 -20 -20
13 28 17 19 19 21 19 20 24 19 -12 -17 13 11 -20 -20 -4 -13 -11 -15 -2 14 -20 -20 -20 -16 -20 -20 -20 -20 -20 -20 -20 -20 -20 -20 -20 -20 -20 -20 -20 -20 -20
-17 1 15 18 16 5 18 15 -20 -1 -8 -20 -13 -19 -16 -12 11 -14 -20 3 -20 -20 -20 -20 -20 -20 -20 -20 -20 -20 -20 -20 -20 -20 -20 -20 -20 -20 -20 -20 -20 -20 -20
-20 -20 -16 3 7 -2 12 14 24 16 21 4 -12 -20 4 -13 -0 15 -1 7 -4 -1 11 2 -19 19 -20 -20 -20 -20 -20 -20 -20 -20 -20 -20 -20 -20 -20 -11 -20 -20 -20
-20 -20 -16 9 -15 20 12 29 -0 9 -8 0 -5 -20 -1 10 31 26 11 26 -10 -20 -20 -20 -20 -20 -20 -20 -20 -20 -20 -20 -20 -20 -20 -6 -20 -6 10 -15 -18 -16 -20
-20 -20 -20 -20 -3 -0 5 19 7 -8 -2 -5 16 11 20 21 -4 -16 -13 -20 -20 -20 -20 2 -20 -20 -20 -20 -20 -20 -20 -20 -20 21 -20 -20 -19 10 -2 -17 -11 15 -20
-20 -20 -20 -20 -20 -20 -20 -20 -20 -12 -6 20 -18 -6 -1 -11 -20 -20 -20 -20 -20 -20 -20 -20 -20 -20 -20 -20 -20 -20 -2 -20 7 18 -1 -10 17 10 -17 -10 5 4 -16
-20 -20 -20 -20 -20 -20 -20 -20 -20 -20 -20 -20 -20 -20 -20 -20 -20 -20 -20 -20 -20 -20 -20 -20 -20 26 26 25 18 16 13 33 3 -16 -9 -16 27 11 -20 -18 -17 -20 -20

GFSSE_prec_radar_063.txt.gz
Reflectivity
-17 -5 -20 -20 -17 -15 -11 20 -8 -20 -11 -5 -20 -18 -20 -10 -18 -20 -20 -20 -20 -19 -15 -1 -12 -9 -15 2 8 -20 -20 -20 -20 -20 4 7 12 0 -20 -6 13 11 6
-19 -20 -20 -2 -19 -20 12 -1 -20 -20 -20 -20 -8 -1 -20 -20 -20 -20 -20 -20 -20 -20 -20 -20 -15 -15 -5 5 -20 -20 -20 -20 -20 -9 -4 10 11 4 -14 -20 5 4 4
8 -11 -20 -20 -4 -20 -13 -20 -20 -20 -20 -8 -3 2 -7 -20 -20 -20 -20 -20 -20 -20 -20 -20 -20 3 15 -9 -20 -20 -20 -20 -20 -20 -20 -20 -20 -20 -20 -20 -20 -19 -8
-7 -5 -20 -20 -20 -20 -20 -20 -20 -20 -20 -20 -20 0 -20 -20 -20 -20 -15 -6 -20 -20 -20 -20 -20 -7 1 -15 -20 -20 -20 -20 -20 -20 -20 -20 -20 -20 -20 -20 -20 -20 -11
-14 -1 -4 -20 -20 -20 -20 24 1 -20 -20 -20 -20 -20 -20 -20 -16 -8 -19 -20 -13 -20 -9 -4 -20 -20 -20 -20 -20 -20 -20 -20 -20 -20 -20 -20 -20 -20 -12 11 12 -3 0
5 -4 20 32 -15 -13 25 11 3 -20 -20 -20 -20 -20 -20 -11 -20 -16 -6 4 -17 10 6 -20 -20 -20 -20 -20 -20 -20 -20 -20 -20 -20 -20 -20 -20 -20 -19 -8 2 16 2
-13 -20 -6 26 26 20 -20 -1 9 -20 -20 -16 -20 19 -14 -20 -19 -19 10 6 5 -20 -20 -20 -20 -20 -20 -20 -20 -20 -20 -20 -20 -20 -20 -20 -20 -14 -20 -3 -3 -7 -20
-2 -20 -20 -20 -16 -20 -20 21 -7 -20 -20 -20 -20 -15 12 4 -17 -18 8 -20 -20 -20 -20 -20 -20 -20 -20 -20 -20 -20 -20 -20 -20 -20 -20 -20 -0 -13 -8 -20 -20 -20 -20
36 12 -14 -20 -20 -20 -20 -20 25 4 3 -10 15 -13 -8 1 -9 -20 -20 -20 -20 -20 -20 -20 -20 -20 -20 -20 -20 -20 -20 -20 -20 -20 -20 -20 -20 -20 -20 -20 -20 -20 -20
30 11 1 -18 -20 -1 -20 -4 -19 32 3 16 24 6 7 -11 -20 -20 -20 -20 -20 -20 -20 -20 -20 -20 -20 -20 -20 -20 -20 -20 -20 -20 -20 -20 -20 -20 -20 -20 -20 -20 -20
13 -4 -15 30 13 -15 -20 -5 -19 26 26 15 17 13 -2 -17 -20 -20 -20 -20 -20 -20 -20 -20 -19 -16 -20 -20 -20 -20 -20 -20 -20 -20 -20 -20 -20 -20 -20 -20 -20 -20 -20
27 10 20 11 17 29 26 17 19 11 10 26 30 23 -3 -18 -13 -19 -20 -20 -20 -20 -20 -20 -20 -20 -20 -20 -20 -20 -20 -20 -20 -20 -20 -20 -20 -20 -20 -20 -20 -20 -20
20 24 37 37 39 35 33 29 34 40 40 30 35 3 15 12 10 -20 -20 -20 -20 -20 -20 -20 -20 -20 -19 -20 -20 -20 -20 -20 -20 -20 -20 -20 -18 -5 -20 -20 -20 -20 -20
9 28 37 25 34 40 43 37 36 19 19 18 8 -4 23 -4 16 -9 -8 -20 -6 -20 -20 -20 -20 -20 -20 -20 -20 -20 -20 -20 -20 -20 -20 -20 -11 -16 -11 -20 -20 -20 8
13 22 31 32 31 27 35 35 30 17 11 23 29 -18 -15 -6 5 20 -20 -20 -20 -20 -20 -20 -20 -20 -20 -20 -20 -20 -20 -20 -20 -20 -20 -20 -20 -20 -12 1 -3 -20 -20
-2 18 32 25 28 12 23 16 22 20 21 24 31 -17 0 13 -3 -16 -16 -20 -20 -20 -20 -20 -20 -20 -20 -20 -20 -20 -20 -20 -20 -20 -20 -20 -20 -20 -20 -20 -13 -13 -20
9 23 35 30 24 18 -15 5 16 4 21 28 24 -10 8 -13 9 7 -16 -20 -20 4 5 -20 -20 -20 -20 -20 -20 -20 -20 -20 -20 -20 -20 -20 -20 -20 -20 -20 -20 -19 3
-7 -5 24 11 24 -3 -3 33 6 16 9 25 23 -19 9 16 13 -3 -13 -20 -20 -10 -11 -20 -20 -20 -20 -20 -20 -20 -20 -20 -20 -20 -20 -20 -20 -20 -20 -20 -20 -17 -1
16 23 11 9 19 -11 17 13 7 32 14 10 14 17 10 5 -19 -20 -20 -20 -20 -18 -19 -20 -20 -20 -20 -20 -20 -20 -20 -20 -20 -20 -20 -20 -20 -20 -20 -20 -20 -20 -7
20 27 -18 17 9 18 14 13 16 12 17 19 18 16 8 18 -3 4 -18 -20 -20 -20 -20 -20 -20 -20 -20 -20 -20 -19 -20 -20 -20 -20 -20 -20 -20 -20 -20 -20 -20 -20 -20
17 -6 25 11 27 2 15 11 -6 26 23 9 17 16 -15 17 21 8 6 -18 -20 -13 -15 -20 -3 -6 -20 -20 -20 -20 -20 -20 -20 -20 -20 -20 -20 -20 -20 -20 -20 -20 -20
-16 -10 -20 6 -11 22 13 17 4 24 12 11 8 21 -1 2 4 10 -6 -20 -15 -20 -20 -17 -9 -20 -20 -20 -20 -20 -20 -20 -20 -20 -20 -20 -20 -20 -20 -20 -19 -20 -10
-15 -20 -20 -20 -20 -14 5 14 13 17 -6 8 14 20 19 22 9 2 -19 -18 -3 -8 -5 -16 2 -20 -20 -20 -20 -20 -20 -20 -20 -20 -20 -20 -12 -20 -20 -20 17 -10 -20
-20 -19 -20 -20 -20 3 -9 10 27 -4 -13 -5 2 13 15 -4 -20 -20 -20 -13 16 24 -14 9 -3 -15 -20 -20 -20 -20 -20 -20 -20 -20 -20 -20 -0 28 -20 25 8 -20 -20
-10 -20 -20 -20 -20 -10 3 4 -6 1 -19 -14 6 17 11 15 5 12 11 11 14 -19 -3 -20 -20 -20 -20 -20 -20 -20 -20 -20 -20 -20 -11 -3 -18 33 -12 9 -19 -20 -20
-20 -20 -20 -20 -20 -20 -19 -18 -10 -20 -6 10 5 1 8 10 15 13 -6 -13 -17 -19 -20 -20 -20 -20 -20 -20 -20 25 5 -11 -15 -20 -4 22 27 38 2 -10 -16 -20 -7

GFSSE_prec_radar_069.txt.gz
Reflectivity
-20 -20 -20 -18 -0 -20 -4 -20 -20 -14 -20 -20 -20 -20 -4 -6 -20 -20 -20 -20 -20 -20 9 10 -7 -14 2 -8 -20 -20 -20 -20 -20 -20 -19 2 6 8 -17 5 -2 14 -3
-20 -20 -20 -20 6 6 1 -4 -12 -18 -20 -11 -20 -20 3 -6 -20 -20 -20 -20 -20 8 -10 -20 -15 -12 3 3 -16 -20 -20 -20 -20 -20 -20 -2 8 1 -20 -17 9 1 8
-20 -20 -20 -20 6 12 14 7 4 -16 -20 -20 -20 -20 10 -20 -3 -20 -20 -5 -20 -20 -20 -20 2 5 6 -12 -20 -20 -20 -20 -20 -11 -11 -6 6 4 -14 -20 -6 -4 -3
-20 -20 -20 -20 5 7 -20 7 3 1 -0 -20 -20 -20 -20 -20 -6 -8 -20 -20 -20 -19 -20 -7 7 9 0 -20 -20 -20 -20 -20 -20 -20 -20 -20 1 -3 -19 -20 -20 -20 -11
-20 -20 -20 -20 2 9 -20 11 8 7 -20 -20 -20 -20 -20 -20 -20 -11 -20 -20 -20 -20 -20 -6 10 7 -20 -20 -20 -20 -20 -20 -20 -20 -20 -20 -20 8 10 -9 5 10 1
-20 -20 -20 -20 -20 -20 -16 14 11 3 -20 -20 -20 -20 -20 -20 -20 -20 -20 -20 -20 -20 -3 -8 5 -20 -20 -20 -20 -20 -20 -20 -20 -20 -20 -20 -20 -12 -20 -20 -20 -20 -20
1 -20 -14 -20 -20 -15 38 33 40 3 -7 -20 -9 -20 -20 -20 -4 -20 -20 -20 -20 -20 -9 -14 -11 -20 -20 -20 -20 -20 -20 -20 -20 -20 -20 -20 -20 -20 -20 -20 -20 -20 -20
-11 -4 36 0 43 28 28 15 43 43 12 -20 -12 -20 -17 -20 -2 1 -20 -20 -20 -20 -18 -2 -20 -20 -20 -20 -20 -20 -20 -20 -20 -20 -20 -20 -9 -20 -20 -20 -20 -20 -20
-14 -4 -20 10 -14 -11 28 7 35 47 10 -11 -20 -20 -4 -20 -13 15 -12 -18 -20 -20 -20 -20 -20 -20 -20 -20 -20 -20 -20 -20 -20 -20 -20 -20 -20 -20 -5 -4 -19 -20 -20
1 -4 5 3 -19 -20 1 25 39 43 41 -7 -6 -19 -20 -20 -20 0 6 -20 -20 -20 -17 -20 -20 -20 -20 -20 -20 -20 -20 -20 -20 -20 -20 -20 -6 -20 -20 -5 -4 -5 -10
6 -14 4 -1 17 -5 -14 1 13 46 43 26 -8 4 -16 9 2 -1 -20 -20 -20 -16 -20 -20 -20 -20 -20 -20 -20 -20 -20 -20 -20 -20 -20 -20 -20 -20 -20 -20 -17 -16 -20
11 9 1 -6 22 14 31 -1 -19 32 28 37 31 -11 5 6 24 -8 -12 -20 -10 -7 -20 -20 -20 -20 -20 -20 -20 -20 -20 -20 -20 -20 -20 -20 -20 -20 -20 -12 -20 -20 -20
14 15 -0 9 -1 26 28 25 27 -5 32 29 28 25 7 6 13 15 15 -14 6 -20 -20 -20 -20 -20 -20 -20 -20 -20 -20 -20 -20 -20 -20 -20 -1 -5 -17 -16 -20 -20 -20
4 -8 26 -7 8 -5 19 -0 6 -13 -4 29 40 36 35 22 24 10 -3 -1 -0 -20 -20 -20 -20 -20 -20 -20 -20 -20 -20 -20 -20 -20 -20 -20 9 -20 -11 -20 -20 -20 -20
3 13 -0 -16 8 9 8 16 18 27 28 32 23 32 34 32 33 2 3 2 -14 -20 -20 -20 -20 -20 -20 -20 -20 -20 -20 -20 -20 -20 -20 -20 -4 8 9 11 -14 -19 -20
11 -3 -1 -2 -20 -8 5 30 28 20 37 36 31 31 29 32 19 20 24 -4 -20 -20 -20 -20 -20 -20 -20 -20 -20 -20 -20 -20 -20 -20 -20 -20 -20 -9 0 -20 -20 -20 -13
10 10 9 -7 -3 -12 3 12 26 22 28 35 35 34 34 29 21 30 11 -20 -20 -20 -20 -20 -20 -20 -20 -20 -20 -20 -20 -20 -20 -20 -20 -20 -20 -20 -20 -20 -20 -11 -16
-7 12 11 -6 5 16 17 19 20 30 32 31 30 23 24 19 14 10 4 -20 -20 -17 -20 -20 -20 -20 -20 -20 -20 -20 -20 -20 -20 -20 -20 -20 -20 -20 -20 -20 7 -9 -20
-20 7 3 2 -8 -15 19 20 27 30 29 27 24 26 30 -0 -20 -20 -12 -16 -12 7 -19 -20 -20 -20 -20 -20 -20 -20 -20 -20 -20 -20 -20 -20 -20 -20 -20 -20 -20 -20 2
-3 16 -20 -14 1 6 9 12 14 28 29 29 13 3 11 13 12 1 5 -14 1 -20 -20 -20 -20 -20 -20 -20 -20 -20 -20 -20 -20 -20 -20 -20 -20 -20 -20 -20 -20 -20 -20
-4 1 -12 -20 0 8 11 13 10 18 19 25 20 18 20 16 8 5 8 -4 -10 -5 17 18 -6 -20 -20 -20 -20 -20 -20 -20 -20 -20 -20 -20 -20 -20 -20 -20 -20 -20 -20
0 -10 1 -16 -10 9 4 4 3 -18 -2 9 19 14 11 -20 -20 -20 -20 -16 16 23 13 -9 -10 -20 -11 4 -20 -8 -10 -20 -20 -20 -20 -20 -20 -20 -20 -20 -20 -20 -20
3 1 0 2 -16 -20 -19 -12 7 5 15 -3 6 3 -10 -20 -14 -15 -18 17 -19 -12 -18 -20 -20 -20 31 -11 -20 5 20 -1 -11 -20 -20 -20 -20 -20 -20 -20 -20 -20 -20
-12 2 7 -2 -1 -20 -17 -6 -20 -16 8 -20 -12 -6 10 -20 -20 -19 -4 -19 -16 -15 -20 -20 -20 -14 33 28 3 -20 -20 -16 17 -3 -20 -20 -20 -20 -20 -20 -20 -20 -13
-20 -20 2 2 -17 -2 1 -11 -20 -20 5 -20 11 13 17 -13 -20 -20 -20 -19 -14 -17 0 5 7 28 10 29 15 21 -20 -20 -20 -20 -20 -17 -20 -20 -20 -20 -20 -20 -19
-20 -10 5 -2 -11 -8 3 3 -20 -20 -19 -20 7 -9 -15 -10 -16 -20 -19 5 -9 17 -4 13 20 18 29 8 19 24 -20 -20 5 -10 -1 -7 9 4 -16 26 8 -20 -20

GFSSE_prec_radar_072.txt.gz
Reflectivity
-20 -20 -20 -20 -20 -20 -6 -20 -20 -20 -20 -20 -20 -20 -20 -20 -20 -20 -20 -20 -20 -20 3 1 -20 -20 -20 -20 -20 -20 -20 -20 -20 -20 -13 2 11 11 5 -12 -1 -16 -3
-20 -20 -20 -20 -20 1 6 3 2 -2 -20 -20 -20 -20 -20 -20 -20 -20 -20 -20 -20 1 1 9 -5 1 -2 -20 -20 -20 -20 -20 -20 16 6 18 16 4 10 -3 -8 11 -7
-20 -20 -20 -20 -20 -20 -18 8 4 -20 -17 -20 -20 -20 -20 -20 -20 -20 -16 -18 -20 -14 9 6 8 6 -6 -20 -20 -20 -20 -20 -20 -20 -3 -15 11 14 -1 -20 -15 2 10
-20 -20 -20 -20 -20 -20 -20 -13 8 2 -10 -20 -20 -20 -20 -20 -20 -20 12 -7 -20 -20 9 4 4 -4 -20 -20 -20 -20 -20 -20 -20 -20 -20 -20 -6 16 11 10 13 12 3
-20 -20 -20 -20 -20 -7 -20 -11 23 7 -14 -20 -20 4 -3 -20 -20 -20 -14 8 -20 -20 10 11 4 -3 -20 -20 -20 -20 -20 -20 -20 -20 -20 -19 9 11 15 8 -15 4 8
-20 -20 -20 -20 -20 -20 -20 -15 5 3 -20 -20 24 12 -20 -20 -20 -20 -18 -20 -20 -20 10 7 -7 -20 -20 -20 -20 -20 -20 -20 -20 -20 -20 -20 7 16 10 -15 12 16 14
-20 -20 -20 -20 -20 -20 14 -0 35 18 15 1 -16 12 -20 -19 -20 -20 -17 -20 -8 -3 9 -7 -19 -20 -20 -20 -20 -20 -20 -20 -20 -20 -20 -20 -16 6 -7 -4 -20 -20 -20
-20 -20 -20 -20 -20 -20 -20 -16 45 47 42 36 15 -14 -7 -20 -20 -20 -15 2 10 -20 -2 -1 -20 -20 -20 -20 -20 -20 -20 -20 -20 -20 -20 -20 2 -20 -20 -20 -20 -20 -20
-20 -0 6 -20 -13 -10 -20 34 30 35 50 41 28 1 -20 -20 -20 -0 -20 -20 6 -20 -20 -20 -20 -20 -20 -20 -20 -20 -20 -20 -20 -20 -20 -20 -20 -20 -20 -20 -20 -20 -20
-14 -20 -20 26 -20 -15 -20 1 27 17 26 43 42 -3 -14 -20 5 -20 8 3 -20 -20 -20 -20 -20 -20 -20 -20 -20 -20 -20 -20 -20 -20 -20 -20 -20 -20 -20 -20 -20 -20 -20
-20 4 -18 -18 2 -16 -3 5 6 -17 3 45 20 7 -20 -20 -20 -12 9 6 11 -20 -20 -20 -20 -20 -20 -20 -20 -20 -20 -20 -20 -20 -20 0 -20 -20 -20 -20 -20 -20 -20
-20 -5 -5 -19 18 -17 -20 29 -9 20 32 43 20 -12 -20 -20 -20 2 -20 2 -1 3 -20 -20 -20 -20 -20 -20 -20 -20 -20 -20 -20 -20 -20 -10 -20 -20 -18 -20 -20 -20 -20
-18 -15 20 -11 35 -8 -17 -18 6 20 36 47 36 24 16 -20 -9 -20 -20 -20 -20 -20 -20 -20 -19 -20 -20 -20 -20 -20 -20 -20 -20 -20 -20 -20 -20 -5 -4 -11 -20 -20 -20
-20 -20 -20 -6 9 12 -14 -2 20 6 -2 43 41 27 31 6 -11 31 -20 -20 -20 -20 -19 10 -19 -20 -20 -20 -20 -20 -19 -20 -20 -20 -20 -20 9 -7 -4 -4 -20 -20 -20
-20 -1 -20 -20 -20 -18 33 -20 -4 8 32 41 27 26 29 -12 -11 36 -9 -20 -20 -17 8 7 -20 -20 -20 -20 -20 -20 -13 -19 -20 -20 -20 -20 8 15 -17 -19 -20 -20 -20
-20 -10 -20 -15 -17 -20 12 4 33 4 28 39 40 31 32 26 30 30 19 9 -19 2 21 5 -20 -20 -20 -20 -20 -20 -19 -20 -20 -20 -20 -20 -20 -14 -20 -20 -20 -20 -20
-20 -20 -20 -20 -12 -14 -4 -20 4 24 18 5 21 12 -4 20 2 27 12 9 -17 -5 1 -20 -20 -20 -20 -20 -20 -20 -20 -20 -20 -20 -20 -20 -20 -20 -20 -20 -20 -20 -20
0 -16 -20 -20 5 -20 6 20 19 26 26 19 22 23 17 21 2 18 12 -13 -20 -7 -20 -20 -20 -20 -20 -20 -20 -20 -20 -20 -20 -20 -20 -20 -20 -20 -20 -20 -20 -20 -20
-16 -20 -20 -20 3 -11 -8 8 10 23 19 16 4 -11 -19 13 8 13 3 27 -20 1 -20 -20 -20 -20 -20 -20 -20 -20 -20 -20 -20 -20 -20 -20 -20 -20 -20 -20 -20 -20 -20
-3 -20 -20 -20 5 -20 -1 21 21 11 -6 17 12 8 -2 2 22 16 32 24 30 32 -20 -20 -20 -2 -20 -20 -20 -20 -20 -20 -20 -20 -20 -20 -20 -20 -20 -20 -20 -20 -20
5 -14 -20 -20 -20 -20 2 -12 -20 -13 -16 2 11 1 13 14 13 14 10 -1 -9 6 -20 -20 7 16 -12 -18 -20 -16 -18 -20 -20 -20 -20 -20 -20 -20 -20 -20 -20 -20 -20
-9 -12 -20 -20 -18 -20 -2 -15 -20 -20 -14 3 15 17 5 11 5 -9 -0 -17 -20 -20 -20 -15 2 15 21 13 9 1 -19 -19 -20 -20 -20 -20 -20 -20 -20 -20 -20 -20 -20
-20 3 -13 -2 -15 -19 -20 -15 12 5 2 3 -6 -2 8 7 3 -20 -20 -20 -20 -20 -20 -19 10 13 3 -3 -18 -19 -18 -20 -20 -20 -20 -20 -20 -20 -20 -20 -20 -20 -20
-20 -15 9 3 -20 -20 10 -3 -20 -11 10 -8 -17 -14 3 -8 -20 -12 -20 -20 -20 -20 -16 -20 -10 -20 -12 29 -4 -20 -20 -10 22 31 3 -20 -20 -20 -20 -20 -20 -20 -20
-20 -20 -19 -19 -20 -20 -2 -17 -20 -8 -20 -20 -20 -20 -20 -18 -20 -20 -19 -20 -20 -20 -16 6 -4 -9 33 25 -20 27 -15 -20 -9 13 -14 -20 -20 -20 -20 -20 -20 -20 -20
-20 -14 -2 6 -14 -20 -5 -5 -20 -20 -20 -20 -20 -20 -20 -20 2 -20 -20 -20 -20 -20 -18 6 -9 35 33 13 -10 -3 -8 18 12 20 25 -17 -20 -20 -20 -20 -20 -20 -20

GFSSE_prec_radar_075.txt.gz
Reflectivity
-20 -20 -20 -20 -20 -20 -20 -20 -20 -20 -20 -20 -5 -20 -20 -20 -20 -20 -20 -20 -20 -20 -20 0 -11 -6 -20 -20 -20 -20 -20 -20 -20 -20 -20 -7 4 7 7 -13 -14 -18 -1
-20 -20 -20 -20 -20 -20 -20 -12 -15 -20 -20 -20 -20 -20 -20 -20 -20 -20 -20 -20 -20 -20 -15 7 4 5 -12 -20 -20 -18 -20 -20 -20 2 9 6 1 4 10 7 7 -5 -3
-20 -20 -20 -20 -20 -20 -20 -20 -3 -20 1 -4 16 -20 -20 -20 -20 -20 -20 -19 -20 -14 5 3 8 7 -20 -20 -20 -20 -20 -20 -20 6 11 8 13 6 12 -12 2 13 9
-20 -20 -20 -20 -20 -20 -20 -20 -19 -20 -9 -5 -20 -20 -20 -20 -20 -20 -20 -20 -17 8 0 1 7 -1 -20 -20 -20 -20 -20 -20 -20 -15 -20 11 -20 15 9 11 12 10 13
-20 -20 -20 -20 -20 -20 -20 -20 -5 8 -20 -14 -15 -20 -20 -20 -20 -20 -20 -20 -20 -17 11 4 0 -20 -20 -20 -20 -15 -18 -20 -20 -20 -6 6 14 13 17 17 8 -8 7
-20 -20 -20 -20 -20 -20 -20 -20 -10 -1 8 19 -20 -18 -20 -20 -17 -20 -20 -20 -20 -20 12 -13 -20 -20 -20 -20 6 -19 -20 -20 -20 -20 -20 2 14 7 -19 7 13 -20 12
-20 -20 -20 -20 -20 -20 -20 -20 -2 -6 38 -6 -13 -20 23 -16 16 -20 -20 -20 7 -20 -7 -20 -20 -20 -20 -20 -20 -20 -20 -20 -20 -20 -20 11 -0 -1 5 16 17 -2 -20
-20 -20 -20 -20 -20 -18 -20 31 25 34 36 29 41 37 26 -6 -20 -20 -20 -20 -20 -20 -9 -20 -20 -20 -20 -20 -20 -20 -20 -20 -20 -20 -20 -20 -0 -5 -5 -20 -20 -20 -20
-20 -20 -20 -20 -20 -20 -20 -20 -12 21 45 40 33 42 40 16 -20 -20 -19 -2 -20 -20 -7 -20 -20 -20 -20 -20 -20 -20 -20 -20 -20 -20 -20 -20 0 -20 -3 -20 -20 -20 -20
-20 -20 -20 -20 -20 -20 -20 -20 5 28 30 44 39 37 47 24 -20 -20 -20 -20 -20 -20 -20 -20 -20 -20 -20 -20 -20 -20 -20 -20 -20 -20 -20 -20 -4 -20 -20 -18 -20 -20 -20
-20 -20 -20 -19 -20 -20 -9 -4 -20 2 8 21 35 33 42 23 -20 -20 -20 -18 8 -20 -20 -20 -20 -20 -20 -20 -20 -20 -20 -20 -20 -20 -20 -8 -20 -20 -20 -20 -20 -20 -20
-20 -20 -20 -20 -3 -13 -5 -3 19 -20 -7 23 19 43 39 21 -20 -20 -18 13 -2 -20 -20 -20 -20 -20 -20 -20 -20 -20 -20 -20 -20 -20 -20 -20 -20 -20 -20 -20 -20 -20 -20
-20 -20 -20 -20 -11 2 -16 20 9 -19 -20 7 21 29 40 13 -20 -20 -20 -18 -20 -20 16 -13 -20 -20 -20 -20 -20 -20 -20 -20 -20 -20 -20 -20 -20 -20 -20 -20 -20 -20 -20
-20 -20 -20 -20 -20 8 0 22 -20 -20 -15 28 36 39 13 -16 -20 -20 -20 -20 -20 -19 -3 13 -19 -20 -20 -20 -20 -20 -20 -20 -20 -20 -20 -20 -5 -12 -20 -20 -20 -20 -20
-20 -20 -20 -20 -20 -20 8 12 1 -20 16 17 40 29 -9 -20 -20 -20 -20 -20 -20 -20 -20 -20 -20 -20 -20 -20 -20 -20 -20 -20 -20 -20 -20 -20 -20 -2 -7 -20 -20 -20 -20
-20 -20 -20 -20 -20 -20 6 5 7 10 2 20 32 32 6 -12 -20 -20 -17 -19 -20 -20 -20 -20 -20 -20 -20 -20 -20 -20 -20 -20 -20 -20 -20 -20 -20 -20 -10 -20 -20 -20 -20
-20 -20 -20 -20 -20 -20 -20 -19 30 25 4 17 30 39 27 16 -20 -20 -19 -20 -20 -20 -20 -20 -20 -20 -12 -20 -20 -20 -20 -20 -20 -20 -20 -20 -20 -20 -20 -20 -20 -20 -20
-20 -20 -20 -20 -20 -20 -16 13 11 -7 25 9 -14 22 9 -17 -16 -20 -14 -20 -11 -10 -20 -20 -20 8 2 -20 -20 -20 -20 -20 -20 -20 -20 -20 -20 -20 -20 -20 -20 -20 -20
-20 -20 -20 -20 -20 -20 -17 -3 14 3 30 -3 -8 -4 2 -16 -20 3 -20 -9 0 -13 -1 -19 -4 -10 -9 -20 -20 -20 -20 -20 -20 -20 -20 -20 -20 -20 -20 -20 -20 -20 -20
-20 -11 -20 -20 -20 -20 -20 20 22 13 16 11 -4 15 4 11 -3 -15 -17 -10 -19 -19 -15 -3 -4 -1 -20 -20 -20 -20 -20 -20 -20 -2 -20 -20 -20 -20 -20 -20 -20 -20 -20
-20 4 -20 -20 -8 -20 -20 1 6 21 29 28 25 20 6 -20 -5 -20 -12 -7 -20 -18 -20 -20 -16 -16 -20 -20 -3 2 -20 -20 -20 1 -20 -20 -20 -20 -20 -20 -20 -20 -20
-20 -20 -3 -20 -12 -16 -15 -20 3 -2 27 11 17 22 6 -14 -8 -20 -8 20 -5 10 13 -12 -20 -20 -20 -20 7 9 -5 7 12 -20 -20 -20 -20 -20 -20 -20 -20 -20 -20
-20 -13 -20 -20 -20 -20 -17 -9 -20 -1 6 15 10 -18 -12 -20 -14 -7 -11 4 18 20 22 1 -20 -20 -20 -18 18 18 11 -10 -20 -20 -20 -20 -20 -20 -20 -20 -20 -20 -20
-20 -20 -1 8 -14 -20 -20 -19 -20 -20 -17 -2 -6 -2 -11 -0 -7 -20 -19 8 12 13 30 13 -13 -20 -18 -4 -12 -19 -15 -20 -20 -20 -20 -20 -20 -20 -20 -20 -20 -20 -20
-20 -20 -20 -18 4 -18 -20 -20 -20 1 -20 -20 -17 9 1 -20 -20 -20 -20 -19 -11 -13 -17 -19 -20 -20 -20 -20 -20 -12 -20 -15 -20 -20 -20 -4 -20 -20 -20 -20 -20 -20 -20
-20 -20 -20 -12 -20 -19 -0 -20 -20 -20 -11 -17 -20 -20 -20 -20 -20 -20 -20 -20 -20 -20 -20 -20 -20 -20 -20 18 -17 -20 -15 -20 -20 -20 -20 -20 -20 -20 -20 -20 -20 -20 -20

GFSSE_prec_radar_081.txt.gz
Reflectivity
-20 -20 -20 -10 -13 -0 -20 -20 -20 -20 -20 -20 -20 -20 -8 -5 -19 -20 -20 -20 -20 -20 -20 -3 -20 -20 -7 15 3 -20 -5 3 -20 -9 5 2 27 7 6 -7 -20 -20 -20
-20 -20 -20 -20 -20 -20 -20 -20 -20 -20 -20 -20 -20 -20 -20 -20 0 -20 -20 -20 -20 -20 -5 1 -20 11 18 2 -3 -20 -20 -20 -20 -19 24 15 11 12 8 -20 -20 -18 -6
-20 -20 -20 -20 -20 -1 -20 -20 -20 -20 -20 -20 -20 -20 -20 -2 -20 -20 -20 -20 -20 -15 6 1 11 15 11 -12 -10 -20 -20 -17 -20 -4 7 -19 -15 11 11 -20 -20 -5 -2
-20 -20 -20 -20 -20 -8 -4 -20 -14 -20 -20 -20 -20 -20 -20 -1 -20 -20 -20 -20 -20 -20 5 8 8 15 5 1 1 -20 -20 -20 -20 -20 -13 4 -9 8 13 -10 -20 -9 10
-20 -20 -20 -20 -20 -2 -3 -20 -20 -20 -20 -19 8 -10 3 -20 -20 -20 -20 -20 -0 -20 6 11 15 12 3 -20 -20 -20 -20 -20 -20 -20 -17 -20 3 11 14 6 8 11 15
-20 -20 -20 -20 -20 0 3 -20 -20 -20 -18 -20 23 7 -20 -20 -20 -20 -20 4 -20 6 2 14 14 5 -20 -20 -20 -20 -20 -20 -20 -20 -20 -20 4 5 9 13 11 17 16
-20 -20 -20 -20 -20 1 5 -10 -20 4 -20 -1 -18 36 8 19 -0 -20 2 -20 -20 -16 9 -0 9 5 -3 -20 -20 -20 -20 -20 -20 -20 -20 0 11 13 10 16 11 19 16
-20 -20 -20 -20 -20 -20 -19 -20 -2 -8 -20 11 -17 28 -2 29 12 33 29 12 9 13 14 -14 8 -12 -12 -20 -20 -20 -20 -20 -20 -20 -20 5 15 17 19 18 12 -7 -20
-20 -20 -20 -20 -11 -20 -20 -14 -20 -20 28 -2 25 12 10 19 36 36 30 29 15 -20 14 6 -19 -1 -18 -20 -20 -20 -20 -20 -20 -20 -20 10 17 9 3 -20 -20 -20 -14
-20 -20 -20 -20 -5 -5 21 -20 -20 -20 -16 27 27 38 40 17 33 35 33 34 -20 -20 12 -20 -20 -17 -19 -20 -20 -20 -20 -20 -20 -20 -20 -6 11 0 1 -0 0 -4 -6
-20 -20 -20 -20 -20 16 21 11 16 14 29 25 26 32 30 27 24 31 38 14 16 -16 0 -20 -3 -20 -18 -20 -20 -20 -20 -20 -20 -20 -20 14 1 1 6 2 -1 1 1
-20 -20 -20 -20 -20 -20 6 20 31 8 32 25 18 22 20 11 30 36 34 14 -3 -20 -11 -20 -20 -20 -16 -20 -20 -20 -20 -20 -20 -20 -20 4 1 -1 4 2 15 18 19
-20 -20 -20 -20 -20 -20 -6 3 15 8 30 28 5 -18 -19 1 15 32 33 10 13 -20 -20 -15 -20 -7 -16 -20 -20 -20 -20 -20 -20 -20 -11 -2 -3 -1 -1 18 19 18 10
-20 -20 -20 -20 -20 -20 -20 -20 -20 6 26 15 -20 -20 -20 -5 24 28 28 10 -20 -20 -20 -8 19 3 -4 -4 -20 -20 -18 -20 -20 -20 -20 -20 -5 -4 1 -20 -11 -4 -7
-20 -20 -20 -20 -20 5 -20 -20 -20 -20 -14 -20 -20 -20 -15 -14 25 33 5 -12 -20 -20 -20 -20 5 10 10 -20 -20 -20 5 -20 -20 -20 -20 -20 -20 -6 -6 -20 -20 -20 -11
-20 -20 -20 -20 -20 -20 -5 -20 -20 -20 -20 -17 -17 -17 -7 8 31 31 13 -20 -20 -20 -20 -20 -20 11 -17 -20 -20 -19 -12 -20 -20 -20 -20 -20 -20 -16 -20 -20 -20 -20 -20
-20 -20 -20 -20 -20 -20 2 -6 -20 -20 22 -19 9 -17 7 26 23 29 -17 -20 -20 -20 -11 -20 -20 -20 -20 -20 -20 -20 -12 -20 -20 -20 -20 -20 -20 -20 -20 -20 -20 -20 -20
-20 -20 -20 -20 -20 -14 -1 -10 -18 -15 20 2 8 12 19 34 26 -6 -20 -20 -20 -20 -20 -20 -20 -20 -5 -7 6 -20 -20 -20 -20 -20 -20 -20 -20 -20 -20 -20 -20 -20 -20
-20 -20 -20 -20 -20 -20 -20 10 12 -13 16 22 21 33 19 25 23 -15 -20 -20 -20 -20 -20 -20 -20 -20 -16 -15 -12 -20 -20 -20 -20 -20 -20 -20 -20 -20 -20 -20 -20 -20 -20
-20 -20 -20 -20 -20 -20 -8 3 15 7 20 34 33 30 30 33 28 -18 -20 -20 -20 -11 -20 -20 -20 -19 -20 -20 -20 -20 -20 -20 -18 -20 -20 -20 -20 -20 -20 -20 -20 -20 -20
-20 -20 -20 -20 -10 -2 -4 -14 -1 16 20 33 38 29 35 35 19 -20 -20 -20 -20 -20 -20 -18 10 -14 -20 -20 -6 -16 -20 -20 -20 -13 -12 -18 -20 -20 -20 -20 -20 -20 -20
-20 -20 -20 -20 -19 -19 -20 -15 -12 8 17 27 32 27 28 22 2 -2 -17 -20 -20 -3 -20 -20 -20 -20 -20 -20 -8 5 -17 -20 1 -5 -20 -5 8 -20 -20 -20 -20 -20 -20
-20 -20 -20 -20 -20 -20 -20 -20 -13 -5 4 35 35 25 32 32 27 20 23 16 9 14 15 -15 -20 -20 -17 -20 -18 -7 -20 -20 -19 12 11 0 7 -10 -20 -20 -20 -20 -20
-20 -20 -20 -20 -20 -20 -20 -20 -17 2 9 19 33 30 20 21 18 24 28 19 17 20 11 -2 -17 -20 -19 -20 -20 -20 -20 -20 4 -17 -8 -17 -3 -20 -16 -20 -20 -20 -20
-20 -20 -20 -20 -9 -20 -20 -20 -20 -20 -17 7 37 37 24 3 10 25 27 22 15 -5 10 -1 -20 -20 -20 -20 -20 -20 -20 -20 7 5 -17 14 -0 -9 -20 -20 -20 -20 -20
-20 -20 -20 -20 -20 -8 -20 -20 -20 -20 -20 -8 28 30 34 32 35 27 27 27 23 18 4 0 -2 -10 -20 -20 -20 -20 -20 -20 1 -19 -20 10 -20 -20 -20 -20 -20 -20 -20